Volver al catálogo

LILIUM-4

ActivoRadioaficionadoSSO
NORAD 71922·PAYLOAD·🇹🇼 Taiwan

Lanzado Mar 30, 2026 desde Vandenberg Space Force Base

Loading…

Próximos Pases (próximas 24 horas)

TLE

ObsoletoSource: AMSAT

Época: Mar 30, 2026, 12:01 UTC

1 71922C 26067AC  26089.50133053 -.00014632  00000 0 -74472-3 0    04
2 71922  97.4497  49.1617 0004341   5.9603 355.7042 15.16896692    16

Sigue LILIUM-4 en tiempo real con AllMySat

Download on the App Store